Tracking 31027 objects as of 19-Jul-2025
HD Live streaming from Space Station
objects crossing your sky now

STARLINK-5451

Track STARLINK-5451 now!
10-day predictions
STARLINK-5451 is classified as:


NORAD ID: 54771
Int'l Code: 2022-175P
Perigee: 545.9 km
Apogee: 547.8 km
Inclination: 53.2 °
Period: 95.4 minutes
Semi major axis: 6917 km
RCS: Unknown
Launch date: December 17, 2022
Source: United States (US)
Launch site: AIR FORCE EASTERN TEST RANGE (AFETR)
Your satellite tracking list
EKRAN 2 DEB
Track 1 satellite(s)




NASA's NSSDC Master Catalog

Two Line Element Set (TLE):
1 54771U 22175P   25199.47504848  .00000847  00000-0  71329-4 0  9992
2 54771  53.2191  10.3505 0001369  86.5980 273.5169 15.08838626144634
Source of the keplerian elements: AFSPC